OBJECT J, 69580

Orbit data source: Space-Track

You're viewing an Uncataloged Satellite

Recently launched and/or uncataloged satellites may have evolving metadata. Metadata may include but not limited to: Owner, Maufacturer, Bus, Motor, and Mission.

OBJECT J, 69580 is a satellite owned by Zhongguo Xingwang (CN) in LEO that was launched on Wed, 17 Jun 2026 UTC via a CHANG ZHENG 12 launch vehicle from the Wenchang Satellite Launch Center (WSC). Unknown objects in Earth's orbit typically refer to objects detected orbiting the Earth but have not yet been identified or cataloged. These objects could be anything from previously untracked satellites, spent rocket stages, debris from satellite collisions, or even natural meteoroids temporarily captured by Earth's gravity.

Loading next visibility...
Identifier
69580, 2026-137J
Orbit
LEO
Country
Flag of CNCN / PRC
Related business
Manufacturer
YINNT
Mission
Operational spacecraft
Bus & Motor
XINGWANG Y, Unknown motor
Mass
~800 kg wet, ~800 kg dry
Launch date (UTC)
2026-06-17 (2 days ago)
Launch vehicle
CHANG ZHENG 12
Launch site
Wenchang Satellite Launch Center (WSC)
Object type
Unknown
Shape & HBR
Unknown
Radar Cross Section
RCS unknown

Expand to show TLE details & history
Last TLE update: 18 hours ago

TLE from 18 hours ago
0 OBJECT J
1 69580U 26137J   26170.02437840 -.00000120  00000-0  20816-4 0  9996
2 69580  50.0018 248.0747 0009566 233.2737 126.7284 13.92808962   287
Epoch: 2026-06-19T00:35Z
TLE epoch observation values (Epoch: 2026-06-19T00:35:06.293Z)
Latitude
-0.00007°
Longitude
-27.96088°
Altitude
923.504 km
Speed
7.389 km/s
True Right ascension
16h 32m 17s
True Declination
0° 00' 00"
Sunlit
Object was in full shadow at epoch
Visualization orbit readout
Latitude
Unknown
Longitude
Unknown
Altitude
Unknown
Speed
Unknown
Apparent Right ascension
Unknown
Apparent Declination
Unknown
Sunlit
N/A
Visualization observer readout
Local Sidereal Time
05:49:27
Azimuth
Unknown
Elevation
Unknown
Doppler factor
Unknown
Orbital elements
Apogee altitude
926.512 km
Perigee altitude
912.55 km
Semi-major axis
7,297.668 km
Eccentricity
0.00096
Inclination
50.0018°
RAAN
248.0747°
Arg. of periapsis
233.2737°
True anomaly
126.81619°
Mean anomaly
126.7284°
Eccentric anomaly
126.7723°
Mean motion
3.48151 °/min
Orbital period
103.4 mins
BSTAR
0.000020816
Loading maneuver chart data...
Computing Atmospheric mass density...
Loading historical data...
Loading historical data...
Loading historical data...
Loading historical data...
Loading historical data...
Loading historical data...
Loading historical data...

Documentation

Showing up to 5 results
|